Regional Weather Roundup
Issued by NWS Jackson, KY

Home | Current Version | Previous Version | Graphics & Text | Print | Product List | Glossary On
Versions: 1 2 3 4 5 6 7 8 9 10 11 12 13 14 15 16 17 18 19 20 21 22 23 24 25 26 27 28
000
ASUS43 KJKL 301110
RWRJKL

EAST KENTUCKY HOURLY WEATHER ROUNDUP
NATIONAL WEATHER SERVICE JACKSON KY
700 AM EDT SAT APR 30 2016

NOTE: "FAIR" INDICATES FEW OR NO CLOUDS BELOW 12,000 FEET WITH
NO SIGNIFICANT WEATHER AND/OR OBSTRUCTIONS TO VISIBILITY.

* THESE REPORTS ARE NOT UNDER NWS QUALITY CONTROL AND MAY NOT
  REPORT WEATHER SUCH AS PRECIPITATION AND FOG.

KYZ079-080-083-085-087-088-110-112-115-119-120-301200
...EASTERN KENTUCKY...

CITY           SKY/WX    TMP DP  RH WIND       PRES   REMARKS
JACKSON        CLOUDY    57  50  77 VRB3      30.00S
LONDON         CLOUDY    60  51  72 NE5       29.98R
SOMERSET*      CLOUDY    59  50  72 CALM      29.97S
MONTICELLO*    MOCLDY    61  54  77 NW5       29.96F
WILLIAMSBURG*  CLOUDY    57  55  94 NE3       29.97S
MIDDLESBORO*   MOCLDY    56  55  95 CALM      29.99R
HARLAN APT*      N/A     57  52  82 CALM      30.00R
HAZARD APT*    CLOUDY    59  54  82 CALM      30.00S
BLACK MTN*       N/A     61  45  55 SE2         N/A
PIKE CO APT*     N/A     56  54  91 NE7       30.01F
BIG SANDY APT* DRIZZLE   56  52  85 E6        30.01F
MOREHEAD APT*  CLOUDY    55  50  82 VRB6G12   30.02S
$$

KYZ035-036-041-042-044-050-067-078-099-301200
...CENTRAL KENTUCKY...

CITY           SKY/WX    TMP DP  RH WIND       PRES   REMARKS
MT STERLING*   CLOUDY    55  52  88 E8        30.01S
FLEMING/MASON* CLOUDY    54  50  87 NE8       30.02S
DANVILLE*      CLOUDY    57  54  88 E5        29.98S
RICHMOND*      CLOUDY    57  52  82 E7        29.97S
LEXINGTON      CLOUDY    59  51  75 E12       29.99R
FRANKFORT      CLOUDY    59  50  72 E9        29.97S
LOUISVILLE     CLOUDY    61  53  75 E8        29.95F
LEBANON*       PTSUNNY   59  54  82 E5        29.95F
BOWLING GREEN  CLOUDY    63  55  75 E6        29.89F
$$

KYZ091>093-OHZ055-061-077-WVZ005-015-034-035-042-301200
...SOUTHERN OHIO/WEST VIRGINIA...

CITY           SKY/WX    TMP DP  RH WIND       PRES   REMARKS
COVINGTON      CLOUDY    53  47  79 E8        30.02S
COLUMBUS       CLOUDY    45  43  93 E9        30.09S
DAYTON         MOCLDY    47  42  83 E9        30.07R
WILMINGTON     CLOUDY    48  44  86 E8        30.04S
HUNTINGTON     MOCLDY    54  50  86 NE8       30.02F
CHARLESTON     CLOUDY    54  50  86 CALM      30.06R
PINEVILLE*     MOCLDY    58  49  73 MISG      30.09F
BECKLEY        CLOUDY    55  49  80 SE6       30.07F
$$

VAZ002-007-008-TNZ017-027-036-066-071-301200
...SOUTHWEST VIRGINIA/EAST TENNESSEE...

CITY           SKY/WX    TMP DP  RH WIND       PRES   REMARKS
WISE*            N/A     57  45  62 CALM      30.05R
BRISTOL        MOCLDY    54  52  93 CALM      30.00S
MORRISTOWN*    SUNNY     63  50  63 NE6       29.96S
KNOXVILLE      MOCLDY    59  55  87 E3        29.95S
OAK RIDGE      CLOUDY    61  54  77 E3        29.96F
CROSSVILLE     PTCLDY    64  50  60 CALM      29.96F
NASHVILLE      LGT RAIN  64  60  87 CALM      29.89F
$$

...KEY TO REMARKS...
VSB - VISIBILITY IN MILES
WCI - WIND CHILL INDEX
HX  - HEAT INDEX

$$




USA.gov is the U.S. government's official web portal to all federal, state and local government web resources and services.